GSAT 7A

导读

GSAT 7A是印度空间研究组织研制的军用通信卫星,于当地时间2018年12月19日搭乘GSLV-MKⅡ运载火箭,从印度东南部斯里赫里戈达岛萨蒂什·达万航天中心发射升空。这颗卫星重2250千克,设计寿命8年,是印度第35颗通信卫星,专门服务印度空军,可将印度空军各类作战平台与地面站连接成通信网络,提升作战通信能力。

Basic Information
目录编号:
43864
目录名称:
GSAT 7A
国际标识:
2018-105A
轨道中心:
EARTH
卫星名称:
GSAT 7A
卫星全名:
--
卫星状态:
在轨 (已飞行2737 天)
发射日期:
2018-12-19 UTC
国别 :
印度 (IN)
星等 :
--
Orbit Information
数据来源 国际轨道数据 AOE轨道数据
星历时间 2026-06-17T06:33:40+0800
10小时前
查看轨道信息
2026-06-16T07:00:00+0800
1天前
查看轨道信息
半长轴 42165.009km 42164.868km
偏心率 0.0001942 0.0001905
轨道倾角 0.012° 0.028°
近地点辐角 1.723° 337.937°
升交点赤经 60.734° 82.154°
平近点角 243.916° 251.903°
近地点 35778.683km 35778.698km
远地点 35795.061km 35794.764km
周期 1436.111分钟 1436.104分钟
每日圈数 1.002708 1.002713
Detailed Information
使用方式:
暂无
2D Orbit Map
3D Orbit Map
Orbit Altitude Analysis Chart
Orbit Inclination Analysis Chart
Orbit Comprehensive Analysis Chart
View Comprehensive Chart